Theta_e
284 284 284 284 285 285 285 285 285 286 287 287 287 288 288 289 290 290 291 291 291 291 292 292 293 293 294
283 283 283 284 284 284 285 285 285 286 286 287 287 288 288 289 290 290 290 290 290 290 290 290 290 291 292
283 283 283 283 284 285 285 285 286 286 286 286 287 287 287 288 288 289 289 289 290 290 289 289 289 290 291
282 282 283 283 284 285 285 285 286 286 286 286 287 287 287 287 288 288 288 289 289 289 289 289 289 289 290
283 283 283 284 284 285 285 286 286 286 286 286 286 286 286 287 287 287 287 288 288 288 289 289 289 289 290
284 284 284 284 285 285 286 286 286 286 285 285 286 286 287 287 287 287 288 288 288 288 288 288 289 289 290
285 285 285 284 285 286 286 286 285 285 284 285 285 286 286 286 286 287 287 288 288 288 288 288 288 289 289
282 282 283 283 283 284 284 284 284 284 285 285 285 286 286 286 286 287 287 287 287 287 288 288 288 288 289
283 283 284 284 284 284 285 284 285 285 285 286 286 285 284 284 284 284 285 286 287 287 288 288 288 288 288
283 284 284 283 284 284 284 284 284 284 284 284 284 283 283 283 283 283 286 285 286 288 288 287 287 287 288
283 283 282 282 282 282 283 283 283 283 282 282 282 282 282 283 283 284 283 284 285 285 286 286 287 287 287
281 281 281 281 281 282 282 282 282 282 282 281 281 281 282 282 282 282 282 283 283 284 284 285 286 287 287
280 280 280 279 279 279 279 279 279 279 280 280 280 281 281 281 281 282 282 283 283 283 283 284 285 286 286
278 278 278 278 278 279 279 279 279 280 280 280 280 280 280 281 281 282 282 282 283 283 283 284 285 285 285
278 278 278 278 278 278 279 279 280 280 280 280 280 280 281 281 281 281 282 282 282 283 283 283 284 284 285
278 278 278 278 278 278 278 278 278 279 279 280 280 280 281 281 281 282 282 282 282 283 283 284 283 283 284
277 277 277 277 277 277 277 278 278 278 279 279 280 280 281 281 281 281 282 282 282 283 283 283 283 283 282
Wind_Speed
15 14 15 15 14 14 14 15 17 14 14 14 14 15 15 15 15 15 16 16 15 14 14 14 14 15 15
16 15 16 16 16 16 15 14 16 16 17 18 19 19 18 17 17 17 18 18 17 16 17 17 17 17 16
16 16 17 17 17 16 16 15 16 17 17 18 19 19 19 18 19 19 19 18 18 18 18 17 17 17 17
15 18 17 17 15 17 17 17 17 14 16 17 19 21 21 21 21 22 22 21 21 21 21 20 19 19 18
17 17 18 16 16 17 16 15 17 17 18 17 19 18 18 18 18 20 20 20 20 21 22 22 22 22 22
19 19 22 21 19 19 17 16 13 15 19 19 18 17 19 20 21 22 23 24 23 24 24 24 25 25 25
21 19 18 17 18 17 16 17 18 18 21 22 21 24 25 26 26 26 24 24 25 26 27 27 28 28 28
23 25 25 23 23 25 26 28 26 23 22 24 24 25 21 23 24 25 26 29 30 30 29 28 28 29 29
25 26 26 27 28 29 26 25 24 18 17 21 19 21 24 29 32 32 31 30 29 29 29 28 27 27 29
23 21 21 22 25 29 27 24 22 22 20 20 20 22 23 26 31 30 17 16 18 20 21 25 27 27 29
17 19 20 19 20 22 26 23 23 24 25 25 24 23 23 25 23 24 30 30 25 25 26 26 27 28 30
19 21 22 22 22 22 22 24 26 28 26 26 22 22 22 23 23 25 25 26 27 27 27 28 28 28 30
19 20 20 21 22 22 24 25 29 30 28 29 29 27 27 28 26 24 26 25 26 30 30 28 29 28 29
17 18 19 19 19 19 21 22 24 25 26 27 29 29 29 29 27 27 25 22 22 26 28 29 29 30 31
18 18 19 18 19 19 20 21 21 21 22 23 24 28 31 31 27 26 25 27 27 29 28 29 29 28 29
19 19 19 19 19 19 19 19 21 22 22 22 21 21 23 26 27 28 28 27 28 28 28 27 29 28 27
19 20 21 21 22 21 20 20 21 22 23 23 23 21 10 10 21 23 26 26 27 25 26 28 31 31 31
Wind_Direction
285 291 292 292 293 293 293 295 297 291 288 285 284 284 283 284 286 291 294 296 299 300 300 300 299 299 299
280 287 288 289 290 291 290 290 289 289 288 287 286 285 283 282 282 281 283 286 291 296 299 299 299 298 298
276 280 282 284 285 284 282 286 285 284 286 287 287 287 286 283 283 281 278 279 281 284 288 291 292 290 292
265 273 274 278 280 279 276 278 277 283 284 285 286 286 285 281 279 278 276 276 278 277 279 281 284 287 289
257 259 266 264 265 272 272 278 280 284 287 289 292 283 276 278 280 283 284 282 280 279 279 280 279 281 284
256 257 257 262 271 270 274 270 270 277 288 289 290 285 284 280 276 275 275 277 278 279 280 280 278 278 279
265 270 289 288 286 277 278 275 275 279 285 281 277 277 277 276 275 274 274 273 274 274 276 278 278 277 277
271 274 275 277 271 270 272 274 274 274 271 270 271 268 272 274 276 275 275 278 276 273 272 272 273 272 272
271 269 268 269 268 270 266 265 265 264 273 275 277 280 284 283 278 275 275 275 274 272 272 272 272 273 271
273 275 276 279 272 269 268 268 275 281 278 274 286 290 286 277 277 272 267 283 288 277 266 275 275 273 271
282 277 273 273 278 271 262 260 265 268 274 277 280 279 272 273 270 277 288 289 283 280 277 274 270 267 268
278 271 270 269 268 268 266 264 264 266 273 273 273 272 275 279 278 282 276 275 277 276 277 278 272 267 264
275 275 275 276 277 276 275 274 273 273 270 268 267 270 269 271 276 274 278 277 275 274 275 273 269 266 266
279 280 282 282 280 277 277 274 271 271 268 267 267 262 262 262 267 273 271 267 274 277 277 276 274 269 266
273 276 277 278 275 274 270 270 266 267 269 268 267 262 260 259 263 264 269 270 273 274 276 276 275 273 269
268 269 268 270 274 275 274 274 274 274 273 272 273 277 271 263 258 261 263 264 268 270 271 269 276 279 278
265 267 269 270 272 273 273 273 273 273 272 272 271 268 272 274 275 262 257 263 269 267 266 265 270 276 277